Forside
METAR-TAF:

METAR-TAF

Lufthavne :

Vinton Veterans Memorial Airpark

Vinton, Iowa, USA

Breddekreds: 42-13-07N, længdekreds: 092-01-33W, højde: 258 m

Aktuelle vejr

Denne rapport blev lavet for 14 minutter siden, kl. 01:15 UTC
Vind 5 kt fra nordnordvest
Temperatur 18°C
Fugtighed 39%
Tryk 1014 hPa
Sigt: 16.1 km
Spredte skyer i en højde af 8000 ft

METAR: KVTI 220115Z AUTO 34005KT 10SM SCT080 18/04 A2995 RMK AO2 T01840042

Tid: 20:29 (01:29 UTC)


TAF: fraværende

Vejrobservationer og prognoser fra mere end 4000 lufthavne (METAR og TAF).

De gule og røde prikker repræsenterer de meteorologiske stationer.

Flyt musen over at se navnet på stationen.

Så klik over at se vejr observationer og prognoser.

At skifte det kort: Klik på de grønne knapper med et sort kors for at zoome ind; på den grønne knap med en bindestreg for at zoome ud; eller på de grønne pile for tilstødende kort.


METAR-TAF: